map of JTR home
JTR - Airport
Location
City:  Santorini, Thira Island, Notío Aigaío (Southern Aegean), Greece
ICAO:LGSR
IATA:JTR

Details
Type:Airport (Aerodrome, Airfield)
Latitude:36°23'57"N (36.399169)
Longitude:25°28'46"E (25.479333)
Datum:WGS 1984
Elevation:127 ft (39 m)
Variation:4.58°E (WMM2015 magnetic declination)
0.10° annual change
Runways:1
Longest:6972 × 98 ft (2125 × 30 m), paved

Time
Time Zone:UTC+2 (DST+3)
Local Time:

Weather
METAR:LGSR 220650Z 34018KT CAVOK 27/20 Q1012 BLU
TAF:LGSR 220500Z 2206/2306 32016KT 9999 FEW025
BECMG 2218/2220 VRB05KT
BECMG 2304/2306 35015KT

Related Locations
Nearby:
Farthest:TUB: 11485 mi / 18484 km
Tubuai, Tubuai Islands, Austral Islands, PF

Find:

   beyond  
but within

Other Information
Maps:
NOTAMs:
Links:
Sources:

  
  • flag of Greece
  

Sectional Chart

Flight Planning
at skyvector.com

Satellite Image

Google Maps Satellite view

 

Copyright © 2004-2018 Karl L. Swartz. All rights reserved.
The Great Circle Mapper name and logo are trademarks of the Great Circle Mapper.
All other trademarks mentioned herein belong to their respective owners.
Please see credits for attibutions and further copyright information.

  Follow gcmap on Facebook Follow gcmap on Twitter Follow gcmap on Google+ GCmap on LinkedIn

hCard Microformat

Geo Microformat